Showing default

DSAT, 42794

Orbit data source: Space-Track

DSAT, 42794 is a payload satellite owned by D-ORBIT (IT) in SSO that was launched on Fri, 23 Jun 2017 UTC via a PSLV-XL launch vehicle from the Sirharikota (SRI). Payload-class satellites include a variety of spacecraft equipped with specific instruments for various scientific and technological missions. These include communications satellites like Starlink; space stations such as the ISS; scientific satellites like the Hubble; Earth observation satellites from companies like Planet Labs, Umbra, and HawkEye 360; GPS; miniature CubeSats for education and research; and military/defense satellites.

Loading next visibility...
Identifier
42794, 2017-036AF
Orbit
SSO
Country
Flag of ITIT
Related business
Manufacturer
D-ORBIT
Mission
Non-operational Commercial Technology
Bus & Motor
CUBESAT 3U, Unknown motor
Mass
4.5 kg wet, 4.2 kg dry
Launch date (UTC)
2017-06-23 (9 years ago)
Launch vehicle
PSLV-XL
Launch site
Sirharikota (SRI)
Object type
Payload
Rocket body
Debris
Shape & HBR
Box, 0.1 m
Radar Cross Section
0.035 m², Medium (>0.1 m² and < 1m²)

Expand to show TLE details & history
Last TLE update: 12 hours ago

TLE from 12 hours ago
0 DSAT
1 42794U 17036AF  26150.88087769  .00007542  00000-0  35590-3 0  9993
2 42794  97.5545 129.8467 0080803 220.7067 138.8111 15.16840919488235
Epoch: 2026-05-30T21:08Z
TLE epoch observation values (Epoch: 2026-05-30T21:08:27.832Z)
Latitude
0.00006°
Longitude
-75.65983°
Altitude
560.598 km
Speed
7.558 km/s
True Right ascension
08h 39m 23s
True Declination
0° 00' 00"
Sunlit
Object was in daylight at epoch
Visualization orbit readout
Latitude
Unknown
Longitude
Unknown
Altitude
Unknown
Speed
Unknown
Apparent Right ascension
Unknown
Apparent Declination
Unknown
Sunlit
N/A
Visualization observer readout
Local Sidereal Time
18:35:03
Azimuth
Unknown
Elevation
Unknown
Doppler factor
Unknown
Orbital elements
Apogee altitude
568.049 km
Perigee altitude
456.694 km
Semi-major axis
6,890.508 km
Eccentricity
0.00808
Inclination
97.5545°
RAAN
129.8467°
Arg. of periapsis
220.7067°
True anomaly
139.41626°
Mean anomaly
138.8111°
Eccentric anomaly
139.11414°
Mean motion
3.7946 °/min
Orbital period
94.87 mins
BSTAR
0.0003559
Loading maneuver chart data...
Computing Atmospheric mass density...

Documentation

Showing up to 5 results
|